• In Slovakia
  • List of Countries
  • For 7 days
  • Water Temperature
  • Satellite Maps
  • Weather Map
  • Weather Widgets
  • user-avatar
    Login

    Hourly Weather Encamp

    Today, 26 September, Wednesday

    Time Temperature Precipitation Wind Pressure Humidity
    00:00 +7°C° 0 mm 2 mps 632 mmHg 89%
    01:00 +7°C° 0 mm 2 mps 632 mmHg 87%
    02:00 +7°C° 0 mm 2 mps 632 mmHg 86%
    03:00 +7°C° 0 mm 2 mps 632 mmHg 85%
    04:00 +7°C° 0 mm 2 mps 632 mmHg 84%
    05:00 +7°C° 0 mm 2 mps 632 mmHg 83%
    06:00 +7°C° 0 mm 2 mps 632 mmHg 83%
    07:00 +9°C° 0 mm 2 mps 633 mmHg 75%
    08:00 +11°C° 0 mm 3 mps 635 mmHg 68%
    09:00 +13°C° 0 mm 3 mps 636 mmHg 60%
    10:00 +14°C° 0 mm 3 mps 636 mmHg 56%
    11:00 +17°C° 0 mm 3 mps 637 mmHg 51%
    12:00 +18°C° 0 mm 3 mps 637 mmHg 47%
    13:00 +18°C° 0 mm 3 mps 637 mmHg 47%
    14:00 +18°C° 0 mm 3 mps 637 mmHg 47%
    15:00 +18°C° 0 mm 3 mps 636 mmHg 48%
    16:00 +16°C° 0 mm 3 mps 636 mmHg 56%
    17:00 +13°C° 0 mm 2 mps 635 mmHg 65%
    18:00 +10°C° 0 mm 2 mps 634 mmHg 74%
    19:00 +10°C° 0 mm 2 mps 634 mmHg 77%
    20:00 +9°C° 0 mm 2 mps 634 mmHg 80%
    21:00 +9°C° 0 mm 1 mps 634 mmHg 82%
    22:00 +9°C° 0 mm 1 mps 634 mmHg 82%
    23:00 +9°C° 0 mm 1 mps 634 mmHg 82%

    Tomorrow, 27 September, Thursday

    Time Temperature Precipitation Wind Pressure Humidity
    00:00 +8°C° 0 mm 1 mps 634 mmHg 82%
    01:00 +8°C° 0 mm 1 mps 633 mmHg 82%
    02:00 +8°C° 0 mm 1 mps 633 mmHg 81%
    03:00 +8°C° 0 mm 1 mps 633 mmHg 80%
    04:00 +8°C° 0 mm 1 mps 633 mmHg 78%
    05:00 +8°C° 0 mm 1 mps 633 mmHg 75%
    06:00 +8°C° 0 mm 1 mps 633 mmHg 72%
    07:00 +11°C° 0 mm 1 mps 634 mmHg 63%
    08:00 +13°C° 0 mm 1 mps 635 mmHg 53%
    09:00 +16°C° 0 mm 1 mps 636 mmHg 44%
    10:00 +19°C° 0 mm 1 mps 637 mmHg 41%
    11:00 +20°C° 0 mm 1 mps 637 mmHg 38%
    12:00 +20°C° 0 mm 2 mps 637 mmHg 35%
    13:00 +20°C° 0 mm 2 mps 636 mmHg 37%
    14:00 +20°C° 0 mm 2 mps 636 mmHg 38%
    15:00 +21°C° 0 mm 1 mps 635 mmHg 39%
    16:00 +18°C° 0 mm 1 mps 634 mmHg 49%
    17:00 +15°C° 0 mm 1 mps 633 mmHg 59%
    18:00 +12°C° 0 mm 1 mps 632 mmHg 69%
    19:00 +12°C° 0 mm 1 mps 632 mmHg 71%
    20:00 +11°C° 0 mm 1 mps 632 mmHg 73%
    21:00 +11°C° 0 mm 1 mps 632 mmHg 74%
    22:00 +11°C° 0 mm 1 mps 631 mmHg 74%
    23:00 +10°C° 0 mm 1 mps 631 mmHg 74%

    Day after tomorrow, 28 September, Friday

    Time Temperature Precipitation Wind Pressure Humidity
    00:00 +10°C° 0 mm 1 mps 630 mmHg 75%
    01:00 +10°C° 0 mm 1 mps 630 mmHg 71%
    02:00 +9°C° 0 mm 2 mps 630 mmHg 68%
    03:00 +9°C° 0 mm 2 mps 629 mmHg 65%
    04:00 +9°C° 0 mm 2 mps 629 mmHg 63%
    05:00 +8°C° 0 mm 2 mps 629 mmHg 61%
    06:00 +8°C° 0 mm 2 mps 628 mmHg 60%
    07:00 +12°C° 0 mm 2 mps 629 mmHg 54%
    08:00 +15°C° 0 mm 2 mps 630 mmHg 48%
    09:00 +19°C° 0 mm 1 mps 631 mmHg 43%
    10:00 +19°C° 0 mm 2 mps 632 mmHg 41%
    11:00 +20°C° 0 mm 2 mps 632 mmHg 39%
    12:00 +21°C° 0 mm 2 mps 632 mmHg 37%
    13:00 +21°C° 0 mm 2 mps 631 mmHg 38%
    14:00 +20°C° 0 mm 2 mps 630 mmHg 39%
    15:00 +20°C° 0 mm 2 mps 630 mmHg 40%
    16:00 +18°C° 0 mm 2 mps 629 mmHg 48%
    17:00 +16°C° 0 mm 2 mps 628 mmHg 55%
    18:00 +13°C° 0 mm 1 mps 627 mmHg 63%
    19:00 +13°C° 0 mm 2 mps 627 mmHg 64%
    20:00 +12°C° 0 mm 2 mps 626 mmHg 66%
    21:00 +10°C° 0 mm 2 mps 626 mmHg 68%
    22:00 +10°C° 0 mm 2 mps 626 mmHg 68%
    23:00 +10°C° 0 mm 2 mps 626 mmHg 69%

    29 September, Saturday

    Time Temperature Precipitation Wind Pressure Humidity
    00:00 +9°C° 0 mm 2 mps 626 mmHg 69%
    01:00 +9°C° 0 mm 2 mps 625 mmHg 70%
    02:00 +10°C° 0 mm 1 mps 625 mmHg 71%
    03:00 +10°C° 0 mm 1 mps 625 mmHg 72%
    04:00 +10°C° 0 mm 1 mps 625 mmHg 73%
    05:00 +10°C° 0 mm 1 mps 625 mmHg 73%
    06:00 +9°C° 0 mm 1 mps 625 mmHg 74%
    07:00 +12°C° 0 mm 1 mps 626 mmHg 65%
    08:00 +15°C° 0 mm 1 mps 627 mmHg 57%
    09:00 +18°C° 0 mm 1 mps 628 mmHg 48%
    10:00 +19°C° 0 mm 1 mps 628 mmHg 46%
    11:00 +20°C° 0 mm 1 mps 628 mmHg 45%
    12:00 +20°C° 0 mm 2 mps 628 mmHg 43%
    13:00 +19°C° 0 mm 2 mps 628 mmHg 45%
    14:00 +20°C° 0 mm 1 mps 627 mmHg 48%
    15:00 +19°C° 0 mm 1 mps 627 mmHg 50%
    16:00 +18°C° 0.1 mm 1 mps 626 mmHg 57%
    17:00 +15°C° 0.1 mm 1 mps 626 mmHg 63%
    18:00 +13°C° 0.1 mm 1 mps 625 mmHg 69%
    19:00 +13°C° 0 mm 1 mps 625 mmHg 72%
    20:00 +12°C° 0 mm 1 mps 625 mmHg 74%
    21:00 +12°C° 0 mm 1 mps 625 mmHg 77%
    22:00 +11°C° 0 mm 1 mps 625 mmHg 77%
    23:00 +11°C° 0 mm 1 mps 625 mmHg 78%

    30 September, Sunday

    Time Temperature Precipitation Wind Pressure Humidity
    00:00 +10°C° 0 mm 1 mps 624 mmHg 79%
    01:00 +10°C° 0 mm 1 mps 624 mmHg 78%
    02:00 +10°C° 0 mm 1 mps 624 mmHg 78%
    03:00 +10°C° 0 mm 1 mps 624 mmHg 78%
    04:00 +10°C° 0 mm 1 mps 624 mmHg 78%
    05:00 +10°C° 0 mm 1 mps 624 mmHg 78%
    06:00 +10°C° 0 mm 1 mps 624 mmHg 77%
    07:00 +12°C° 0 mm 1 mps 625 mmHg 69%
    08:00 +15°C° 0 mm 1 mps 626 mmHg 60%
    09:00 +19°C° 0 mm 1 mps 627 mmHg 51%
    10:00 +19°C° 0.2 mm 1 mps 627 mmHg 49%
    11:00 +20°C° 0.2 mm 1 mps 628 mmHg 48%
    12:00 +20°C° 0.2 mm 1 mps 628 mmHg 46%
    13:00 +20°C° 0.4 mm 1 mps 627 mmHg 48%
    14:00 +19°C° 0.4 mm 1 mps 627 mmHg 50%
    15:00 +19°C° 0.4 mm 1 mps 626 mmHg 53%
    16:00 +16°C° 0.2 mm 1 mps 626 mmHg 59%
    17:00 +15°C° 0.2 mm 1 mps 625 mmHg 65%
    18:00 +13°C° 0.2 mm 1 mps 625 mmHg 71%
    19:00 +12°C° 0.1 mm 1 mps 625 mmHg 75%
    20:00 +11°C° 0.1 mm 1 mps 625 mmHg 78%
    21:00 +11°C° 0.1 mm 1 mps 624 mmHg 81%
    22:00 +10°C° 0.1 mm 1 mps 624 mmHg 82%
    23:00 +10°C° 0.1 mm 1 mps 624 mmHg 83%

    1 October, Monday

    Time Temperature Precipitation Wind Pressure Humidity
    00:00 +10°C° 0.1 mm 1 mps 624 mmHg 84%
    01:00 +9°C° 0 mm 1 mps 623 mmHg 85%
    02:00 +8°C° 0 mm 0 mps 623 mmHg 85%
    03:00 +8°C° 0 mm 0 mps 623 mmHg 86%
    04:00 +8°C° 0.1 mm 0 mps 623 mmHg 86%
    05:00 +8°C° 0.1 mm 0 mps 623 mmHg 87%
    06:00 +9°C° 0.1 mm 1 mps 623 mmHg 87%
    07:00 +10°C° 0.2 mm 1 mps 624 mmHg 82%
    08:00 +12°C° 0.2 mm 1 mps 625 mmHg 78%
    09:00 +13°C° 0.2 mm 1 mps 626 mmHg 73%
    10:00 +13°C° 0.7 mm 1 mps 625 mmHg 76%
    11:00 +13°C° 0.7 mm 1 mps 625 mmHg 80%
    12:00 +13°C° 0.7 mm 1 mps 625 mmHg 83%
    13:00 +12°C° 1.3 mm 1 mps 625 mmHg 84%
    14:00 +12°C° 1.3 mm 1 mps 625 mmHg 86%
    15:00 +12°C° 1.3 mm 1 mps 625 mmHg 87%
    16:00 +11°C° 0.9 mm 1 mps 625 mmHg 90%
    17:00 +11°C° 0.9 mm 1 mps 625 mmHg 92%
    18:00 +10°C° 0.9 mm 1 mps 625 mmHg 94%
    19:00 +10°C° 1 mm 1 mps 625 mmHg 95%
    20:00 +10°C° 1 mm 1 mps 625 mmHg 95%
    21:00 +10°C° 1 mm 1 mps 626 mmHg 95%
    22:00 +10°C° 0.8 mm 1 mps 626 mmHg 95%
    23:00 +10°C° 0.8 mm 1 mps 626 mmHg 95%
    Show more